Tucson Davis Monthan, AZ

4:46 AM MST on December 11, 2017 (GMT -0700)
Davis-Monthan Air Force Base

Weather History for KDMA - November, 2012

Change the Weather History Date:

Saturday, November 10, 2012

  Actual Average Record
Temperature  
Mean Temperature 52 °F -  
Max Temperature 60 °F 76 °F 88 °F (1989)
Min Temperature 44 °F 48 °F 33 °F (1948)
Degree Days  
Heating Degree Days 13    
Growing Degree Days 2 (Base 50)    
Moisture  
Dew Point 38 °F    
Average Humidity 66    
Maximum Humidity 93    
Minimum Humidity 24    
Precipitation  
Precipitation 0.00 in - - ()
Sea Level Pressure  
Sea Level Pressure 29.91 in    
Wind  
Wind Speed 15 mph (WNW)    
Max Wind Speed 22 mph    
Max Gust Speed 32 mph    
Visibility 10 miles    
Events Rain    
Averages and records for this station are not official NWS values.
T = Trace of Precipitation, MM = Missing Value Source: NWS Daily Summary

Daily Weather History Graph

Daily Weather History Graph

Search for Another Location

Airport or City:

Trip Planner

Search our weather history database for the weather conditions in past years. The results will help you decide how hot, cold, wet, or windy it might be!

Date:

Astronomy

Nov. 10, 2012 Rise Set
Actual Time 6:48 AM MST 5:26 PM MST
Civil Twilight 6:22 AM MST 5:51 PM MST
Nautical Twilight 5:53 AM MST 6:21 PM MST
Astronomical Twilight 5:24 AM MST 6:50 PM MST
Moon 3:08 AM MST (11/10) 3:05 PM MST (11/10)
Length of Visible Light 11h 28m
Length of Day
10h 37m
Waning Crescent, 14% of the Moon is Illuminated
Nov 10
Waning Crescent
Nov 13
New
Nov 20
First Quarter
Nov 28
Full
Dec 6
Last Quarter

Hourly Weather History & Observations

Time (MST) Temp. Windchill Dew Point Humidity Pressure Visibility Wind Dir Wind Speed Gust Speed Precip Events Conditions
12:58 AM 60.8 °F - 47.8 °F 62% 29.75 in 10.0 mi SSW 13.8 mph - N/A   Partly Cloudy
1:58 AM 60.4 °F - 48.0 °F 64% 29.74 in 10.0 mi SW 10.4 mph - N/A   Mostly Cloudy
2:47 AM 60.8 °F - 46.4 °F 59% 29.84 in 10.0 mi West 21.9 mph 32.2 mph N/A   Mostly Cloudy
2:49 AM 60.8 °F - 46.4 °F 59% 29.84 in 10.0 mi NW 20.7 mph 31.1 mph N/A   Mostly Cloudy
2:51 AM 59.0 °F - 46.4 °F 63% 29.84 in 9.0 mi NW 21.9 mph 31.1 mph N/A   Light Drizzle
2:56 AM 59.0 °F - 48.2 °F 67% 29.86 in 6.0 mi NW 20.7 mph 31.1 mph N/A Rain Light Rain
2:58 AM 57.2 °F - 48.2 °F 72% 29.77 in 5.0 mi NW 20.7 mph 31.1 mph N/A Rain Light Rain
3:03 AM 51.8 °F - 46.4 °F 82% 29.86 in 6.0 mi NW 15.0 mph - N/A Rain Light Rain
3:08 AM 50.0 °F - 46.4 °F 87% 29.87 in 10.0 mi NW 21.9 mph - N/A Rain Light Rain
3:18 AM 50.0 °F - 46.4 °F 87% 29.87 in 10.0 mi NW 17.3 mph - N/A Rain Light Rain
3:25 AM 48.2 °F - 46.4 °F 93% 29.87 in 10.0 mi NW 15.0 mph - N/A   Overcast
3:45 AM 48.2 °F - 46.4 °F 93% 29.88 in 10.0 mi NW 15.0 mph - N/A   Mostly Cloudy
3:50 AM 48.2 °F - 46.4 °F 93% 29.88 in 10.0 mi NW 16.1 mph - N/A   Mostly Cloudy
3:58 AM 47.5 °F - 45.5 °F 93% 29.81 in 10.0 mi NW 18.4 mph - N/A   Mostly Cloudy
4:03 AM 48.2 °F - 44.6 °F 87% 29.88 in 10.0 mi NW 15.0 mph - N/A   Mostly Cloudy
4:13 AM 48.2 °F - 44.6 °F 87% 29.89 in 10.0 mi NW 12.7 mph - N/A   Light Drizzle
4:43 AM 46.4 °F 39.8 °F 42.8 °F 87% 29.90 in 10.0 mi NW 16.1 mph - N/A   Light Drizzle
4:47 AM 46.4 °F 39.2 °F 42.8 °F 87% 29.90 in 10.0 mi NW 18.4 mph - N/A   Overcast
4:52 AM 46.4 °F 39.2 °F 42.8 °F 87% 29.91 in 10.0 mi NW 18.4 mph - N/A   Overcast
4:58 AM 45.7 °F 38.0 °F 41.7 °F 86% 29.84 in 10.0 mi NW 19.6 mph - N/A   Overcast
5:03 AM 46.4 °F 39.8 °F 41.0 °F 81% 29.92 in 10.0 mi NW 16.1 mph - N/A   Light Drizzle
5:12 AM 44.6 °F 38.1 °F 39.2 °F 81% 29.92 in 10.0 mi WNW 13.8 mph - N/A   Overcast
5:22 AM 44.6 °F 37.4 °F 39.2 °F 81% 29.93 in 10.0 mi NW 16.1 mph - N/A   Light Drizzle
5:32 AM 44.6 °F 37.8 °F 39.2 °F 81% 29.93 in 10.0 mi NW 15.0 mph - N/A   Overcast
5:37 AM 44.6 °F 37.4 °F 39.2 °F 81% 29.93 in 10.0 mi WNW 16.1 mph - N/A   Light Drizzle
5:46 AM 44.6 °F 38.1 °F 39.2 °F 81% 29.93 in 10.0 mi WNW 13.8 mph - N/A   Mostly Cloudy
5:52 AM 44.6 °F 37.8 °F 39.2 °F 81% 29.94 in 10.0 mi WNW 15.0 mph - N/A   Light Drizzle
5:58 AM 44.8 °F 39.0 °F 38.3 °F 78% 29.88 in 10.0 mi West 11.5 mph 20.7 mph N/A   Light Drizzle
6:02 AM 44.6 °F 38.1 °F 37.4 °F 76% 29.94 in 10.0 mi WNW 13.8 mph 20.7 mph N/A   Mostly Cloudy
6:05 AM 44.6 °F 38.4 °F 37.4 °F 76% 29.94 in 10.0 mi WNW 12.7 mph - N/A Rain Light Rain
6:53 AM 44.6 °F 41.4 °F 37.4 °F 76% 29.96 in 10.0 mi West 5.8 mph - N/A   Partly Cloudy
6:58 AM 45.1 °F 42.0 °F 37.9 °F 76% 29.91 in 10.0 mi West 5.8 mph - N/A   Scattered Clouds
7:44 AM 46.4 °F 42.9 °F 39.2 °F 76% 30.00 in 10.0 mi South 6.9 mph - N/A Rain Light Rain
7:57 AM 46.4 °F 41.5 °F 39.2 °F 76% 29.99 in 10.0 mi ESE 10.4 mph - N/A   Scattered Clouds
7:58 AM 46.4 °F 41.9 °F 39.2 °F 76% 29.93 in 10.0 mi SE 9.2 mph - N/A   Scattered Clouds
8:58 AM 46.9 °F - 39.7 °F 76% 29.96 in - North - - N/A   Overcast
9:19 AM 48.2 °F - 35.6 °F 62% 30.02 in - North - - N/A   Light Drizzle
9:28 AM 48.2 °F - 37.4 °F 66% 30.02 in - North - - N/A   Overcast
9:58 AM 49.1 °F - 37.6 °F 64% 29.96 in - North - - N/A   Overcast
10:58 AM 50.7 °F - 37.2 °F 60% 29.96 in - North - - N/A   Mostly Cloudy
11:58 AM 53.8 °F - 35.4 °F 50% 29.94 in - North - - N/A   Clear
12:58 PM 58.6 °F - 23.5 °F 26% 29.89 in - North - - N/A   Clear
1:58 PM 59.0 °F - 22.8 °F 25% 29.87 in - North - - N/A   Clear
2:58 PM 59.2 °F - 23.0 °F 25% 29.88 in - North - - N/A   Clear
3:58 PM 58.3 °F - 21.7 °F 24% 29.89 in - North - - N/A   Clear
4:58 PM 56.7 °F - 21.7 °F 26% 29.90 in 10.0 mi West 16.1 mph - N/A   Clear
5:58 PM 54.3 °F - 23.0 °F 30% 29.91 in 10.0 mi West 8.1 mph - N/A   Mostly Cloudy
6:58 PM 53.4 °F - 22.6 °F 30% 29.94 in 10.0 mi West 11.5 mph - N/A   Partly Cloudy
7:58 PM 52.9 °F - 23.2 °F 31% 29.96 in 10.0 mi West 11.5 mph - N/A   Mostly Cloudy
8:58 PM 52.2 °F - 25.2 °F 35% 29.99 in 10.0 mi WNW 16.1 mph 24.2 mph N/A   Mostly Cloudy
9:58 PM 51.4 °F - 26.4 °F 38% 30.00 in 10.0 mi West 8.1 mph - N/A   Mostly Cloudy
10:58 PM 50.4 °F - 24.8 °F 37% 30.02 in 10.0 mi WNW 11.5 mph - N/A   Mostly Cloudy
11:58 PM 50.2 °F - 24.4 °F 37% 30.03 in 10.0 mi WNW 12.7 mph - N/A   Mostly Cloudy